This is the latest recevied weather packets stored in our database for station/object LZ1HCO-25. If no packets are shown the sender has not sent any weather packets the latest 10 day(s).
| Time | Temp. | Humidity | Pressure | Rain* | Wind** | Luminosity | Snow |
|---|---|---|---|---|---|---|---|
| 1777969327 | 25.56° C | 37% | 969 hPa | - | - | 0 W/m² | - |
| 1777969016 | 25° C | 42% | 969 hPa | - | - | 0 W/m² | - |
| 1777968704 | 25.56° C | 41% | 969 hPa | - | - | 0 W/m² | - |
| 1777968393 | 24.44° C | 41% | 969 hPa | - | - | 0 W/m² | - |
| 1777968082 | 24.44° C | 40% | 969 hPa | - | - | 0 W/m² | - |
| 1777967770 | 25.56° C | 39% | 969 hPa | - | - | 0 W/m² | - |
| 1777967459 | 24.44° C | 41% | 969 hPa | - | - | 0 W/m² | - |
| 1777967148 | 25.56° C | 40% | 969 hPa | - | - | 0 W/m² | - |
| 1777966836 | 24.44° C | 46% | 969 hPa | - | - | 0 W/m² | - |
| 1777966525 | 24.44° C | 39% | 969 hPa | - | - | 0 W/m² | - |
| 1777966214 | 25° C | 39% | 969 hPa | - | - | 0 W/m² | - |
| 1777965902 | 24.44° C | 39% | 969 hPa | - | - | 0 W/m² | - |
| 1777965591 | 24.44° C | 41% | 969 hPa | - | - | 0 W/m² | - |
| 1777965280 | 23.89° C | 43% | 969 hPa | - | - | 0 W/m² | - |
| 1777964968 | 24.44° C | 45% | 969 hPa | - | - | 0 W/m² | - |
| 1777964657 | 23.89° C | 44% | 969 hPa | - | - | 0 W/m² | - |
| 1777964345 | 23.89° C | 53% | 969 hPa | - | - | 0 W/m² | - |
| 1777964034 | 22.78° C | 55% | 969 hPa | - | - | 0 W/m² | - |
| 1777963723 | 22.78° C | 59% | 969 hPa | - | - | 0 W/m² | - |
| 1777963411 | 22.22° C | 64% | 969 hPa | - | - | 0 W/m² | - |
| 1777963100 | 21.67° C | 67% | 969 hPa | - | - | 0 W/m² | - |
| 1777962789 | 21.11° C | 76% | 970 hPa | - | - | 0 W/m² | - |
| 1777962477 | 20.56° C | 77% | 970 hPa | - | - | 0 W/m² | - |
| 1777962166 | 21.11° C | 75% | 969 hPa | - | - | 0 W/m² | - |
| 1777961855 | 20.56° C | 81% | 969 hPa | - | - | 0 W/m² | - |
* Rain since midnight (hover to see other rain measurements)
** Current wind speed in m/s (hover to see current wind gust speed)